| time (UTC) | temp F | wind direction | speed MPH | gust MPH | rain 1hr in | rain 24hr in | rain mn in | humidity % | barometer mb |
| 20260507155238 | 58 | 29 | 3.0 | 6.0 | 0.00 | 0.00 | 0.00 | 38 | 1010.0 |
| 20260507154735 | 57 | 150 | 2.0 | 10.0 | 0.00 | 0.00 | 0.00 | 38 | 1010.2 |
| 20260507154233 | 57 | 187 | 0.0 | 5.0 | 0.00 | 0.00 | 0.00 | 37 | 1010.2 |
| 20260507153729 | 57 | 255 | 2.0 | 7.0 | 0.00 | 0.00 | 0.00 | 37 | 1010.1 |
| 20260507153226 | 57 | 247 | 5.0 | 9.0 | 0.00 | 0.00 | 0.00 | 39 | 1010.3 |
| 20260507152722 | 56 | 241 | 4.0 | 6.0 | 0.00 | 0.00 | 0.00 | 44 | 1010.3 |
| 20260507152219 | 56 | 241 | 4.0 | 9.0 | 0.00 | 0.00 | 0.00 | 41 | 1010.6 |
| 20260507151715 | 56 | 251 | 4.0 | 10.0 | 0.00 | 0.00 | 0.00 | 41 | 1010.4 |
| 20260507151211 | 56 | 130 | 1.0 | 4.0 | 0.00 | 0.00 | 0.00 | 42 | 1010.7 |
| 20260507150708 | 56 | 21 | 3.0 | 11.0 | 0.00 | 0.00 | 0.00 | 39 | 1011.0 |
| 20260507150205 | 56 | 291 | 6.0 | 9.0 | 0.00 | 0.00 | 0.00 | 39 | 1010.8 |
| 20260507145701 | 56 | 147 | 2.0 | 13.0 | 0.00 | 0.00 | 0.00 | 38 | 1011.1 |
| 20260507145158 | 56 | 300 | 7.0 | 10.0 | 0.00 | 0.00 | 0.00 | 40 | 1011.2 |
| 20260507144654 | 56 | 13 | 2.0 | 8.0 | 0.00 | 0.00 | 0.00 | 38 | 1011.1 |
| 20260507144153 | 55 | 107 | 3.0 | 6.0 | 0.00 | 0.00 | 0.00 | 37 | 1011.0 |
| 20260507143649 | 56 | 234 | 5.0 | 16.0 | 0.00 | 0.00 | 0.00 | 39 | 1011.3 |
| 20260507143146 | 55 | 164 | 3.0 | 7.0 | 0.00 | 0.00 | 0.00 | 45 | 1011.2 |
| 20260507142642 | 55 | 319 | 4.0 | 6.0 | 0.00 | 0.00 | 0.00 | 42 | 1011.2 |
| 20260507142139 | 55 | 81 | 1.0 | 4.0 | 0.00 | 0.00 | 0.00 | 42 | 1011.3 |
| 20260507141635 | 54 | 316 | 4.0 | 8.0 | 0.00 | 0.00 | 0.00 | 44 | 1011.5 |
| 20260507141132 | 54 | 346 | 3.0 | 10.0 | 0.00 | 0.00 | 0.00 | 41 | 1011.5 |
| 20260507140628 | 54 | 35 | 4.0 | 8.0 | 0.00 | 0.00 | 0.00 | 43 | 1011.6 |
| 20260507140126 | 54 | 26 | 1.0 | 6.0 | 0.00 | 0.00 | 0.00 | 44 | 1011.8 |
| 20260507135623 | 53 | 282 | 4.0 | 6.0 | 0.00 | 0.00 | 0.00 | 46 | 1011.6 |
| 20260507135120 | 53 | 249 | 5.0 | 5.0 | 0.00 | 0.00 | 0.00 | 45 | 1011.6 |
| 20260507134616 | 53 | 262 | 2.0 | 5.0 | 0.00 | 0.00 | 0.00 | 48 | 1011.7 |
| 20260507134112 | 52 | 273 | 3.0 | 7.0 | 0.00 | 0.00 | 0.00 | 52 | 1011.8 |
| 20260507133608 | 51 | 148 | 2.0 | 6.0 | 0.00 | 0.00 | 0.00 | 49 | 1011.7 |
| 20260507133106 | 51 | 51 | 2.0 | 2.0 | 0.00 | 0.00 | 0.00 | 49 | 1011.8 |
| 20260507132603 | 50 | 263 | 5.0 | 5.0 | 0.00 | 0.00 | 0.00 | 52 | 1011.7 |
| 20260507132059 | 49 | 45 | 3.0 | 4.0 | 0.00 | 0.00 | 0.00 | 57 | 1011.8 |
| 20260507131556 | 49 | 119 | 5.0 | 6.0 | 0.00 | 0.00 | 0.00 | 61 | 1011.9 |
| 20260507131054 | 48 | 180 | 0.0 | 5.0 | 0.00 | 0.00 | 0.00 | 58 | 1011.8 |
| 20260507130550 | 48 | 78 | 4.0 | 5.0 | 0.00 | 0.00 | 0.00 | 61 | 1012.1 |
| 20260507130049 | 48 | 50 | 4.0 | 6.0 | 0.00 | 0.00 | 0.00 | 64 | 1012.0 |
| 20260507125547 | 48 | 106 | 3.0 | 6.0 | 0.00 | 0.00 | 0.00 | 63 | 1012.1 |
| 20260507125044 | 47 | 115 | 5.0 | 5.0 | 0.00 | 0.00 | 0.00 | 67 | 1012.2 |
| 20260507124540 | 47 | 120 | 5.0 | 6.0 | 0.00 | 0.00 | 0.00 | 66 | 1012.4 |
| 20260507124038 | 46 | 118 | 4.0 | 8.0 | 0.00 | 0.00 | 0.00 | 65 | 1012.3 |
| 20260507123536 | 46 | 137 | 2.0 | 7.0 | 0.00 | 0.00 | 0.00 | 67 | 1012.4 |
| 20260507123032 | 46 | 114 | 6.0 | 8.0 | 0.00 | 0.00 | 0.00 | 66 | 1012.2 |
| 20260507122528 | 46 | 116 | 4.0 | 6.0 | 0.00 | 0.00 | 0.00 | 67 | 1012.3 |
| 20260507122024 | 46 | 99 | 5.0 | 5.0 | 0.00 | 0.00 | 0.00 | 69 | 1012.2 |
| 20260507121520 | 45 | 120 | 5.0 | 7.0 | 0.00 | 0.00 | 0.00 | 68 | 1012.1 |
| 20260507121015 | 45 | 116 | 3.0 | 6.0 | 0.00 | 0.00 | 0.00 | 68 | 1012.1 |
| 20260507120512 | 44 | 130 | 4.0 | 5.0 | 0.00 | 0.00 | 0.00 | 70 | 1011.9 |
| 20260507120009 | 44 | 118 | 4.0 | 6.0 | 0.00 | 0.00 | 0.00 | 72 | 1012.0 |
| 20260507115505 | 44 | 101 | 3.0 | 5.0 | 0.00 | 0.00 | 0.00 | 72 | 1012.1 |
| 20260507115001 | 43 | 120 | 5.0 | 6.0 | 0.00 | 0.00 | 0.00 | 71 | 1012.1 |
| 20260507114457 | 43 | 96 | 3.0 | 4.0 | 0.00 | 0.00 | 0.00 | 75 | 1012.1 |
| 20260507113955 | 43 | 92 | 3.0 | 6.0 | 0.00 | 0.00 | 0.00 | 75 | 1012.2 |
| 20260507113452 | 43 | 121 | 3.0 | 4.0 | 0.00 | 0.00 | 0.00 | 73 | 1012.1 |
| 20260507112949 | 42 | 27 | 2.0 | 2.0 | 0.00 | 0.00 | 0.00 | 74 | 1012.0 |
| 20260507112446 | 42 | 216 | 0.0 | 2.0 | 0.00 | 0.00 | 0.00 | 76 | 1011.8 |
| 20260507111943 | 41 | 76 | 0.0 | 2.0 | 0.00 | 0.00 | 0.00 | 76 | 1012.0 |
| 20260507111441 | 41 | 359 | 3.0 | 4.0 | 0.00 | 0.00 | 0.00 | 78 | 1011.9 |
| 20260507110936 | 41 | 356 | 2.0 | 2.0 | 0.00 | 0.00 | 0.00 | 80 | 1011.6 |
| 20260507110433 | 40 | 240 | 2.0 | 3.0 | 0.00 | 0.00 | 0.00 | 82 | 1011.6 |
| 20260507105929 | 40 | 160 | 2.0 | 4.0 | 0.00 | 0.00 | 0.00 | 82 | 1011.7 |
| 20260507105427 | 40 | 275 | 2.0 | 3.0 | 0.00 | 0.00 | 0.00 | 82 | 1011.5 |
| 20260507104923 | 40 | 260 | 4.0 | 5.0 | 0.00 | 0.00 | 0.00 | 83 | 1011.6 |
| 20260507104420 | 39 | 137 | 1.0 | 3.0 | 0.00 | 0.00 | 0.00 | 84 | 1011.4 |
| 20260507103915 | 39 | 215 | 2.0 | 4.0 | 0.00 | 0.00 | 0.00 | 86 | 1011.4 |
| 20260507103413 | 39 | 181 | 2.0 | 4.0 | 0.00 | 0.00 | 0.00 | 86 | 1011.5 |
| 20260507102909 | 38 | 254 | 2.0 | 5.0 | 0.00 | 0.00 | 0.00 | 87 | 1011.3 |
| 20260507102406 | 38 | 255 | 4.0 | 4.0 | 0.00 | 0.00 | 0.00 | 89 | 1011.1 |
| 20260507101902 | 37 | 194 | 1.0 | 3.0 | 0.00 | 0.00 | 0.00 | 89 | 1011.1 |
| 20260507101402 | 37 | 201 | 1.0 | 2.0 | 0.00 | 0.00 | 0.00 | 89 | 1011.3 |
| 20260507100859 | 38 | 183 | 2.0 | 3.0 | 0.00 | 0.00 | 0.00 | 88 | 1011.4 |
| 20260507100357 | 38 | 260 | 3.0 | 4.0 | 0.00 | 0.00 | 0.00 | 88 | 1011.2 |
| 20260507095855 | 38 | 272 | 2.0 | 2.0 | 0.00 | 0.00 | 0.00 | 89 | 1011.4 |
| 20260507095351 | 38 | 183 | 1.0 | 2.0 | 0.00 | 0.00 | 0.00 | 88 | 1011.5 |
| 20260507094849 | 38 | 278 | 0.0 | 2.0 | 0.00 | 0.00 | 0.00 | 89 | 1011.3 |
| 20260507094345 | 38 | 323 | 0.0 | 2.0 | 0.00 | 0.00 | 0.00 | 89 | 1011.4 |
| 20260507093842 | 38 | 207 | 0.0 | 2.0 | 0.00 | 0.00 | 0.00 | 89 | 1011.2 |
| 20260507093340 | 38 | 66 | 0.0 | 2.0 | 0.00 | 0.00 | 0.00 | 90 | 1011.1 |
| 20260507092838 | 38 | 260 | 1.0 | 2.0 | 0.00 | 0.00 | 0.00 | 90 | 1011.3 |
| 20260507092334 | 38 | 99 | 1.0 | 2.0 | 0.00 | 0.00 | 0.00 | 90 | 1011.1 |
| 20260507091831 | 39 | 29 | 0.0 | 1.0 | 0.00 | 0.00 | 0.00 | 90 | 1011.2 |
| 20260507091327 | 39 | 13 | 0.0 | 2.0 | 0.00 | 0.00 | 0.00 | 89 | 1011.3 |
| 20260507090823 | 39 | 225 | 1.0 | 1.0 | 0.00 | 0.00 | 0.00 | 89 | 1011.3 |
| 20260507090319 | 39 | 218 | 0.0 | 1.0 | 0.00 | 0.00 | 0.00 | 88 | 1011.1 |
| 20260507085816 | 39 | 248 | 2.0 | 2.0 | 0.00 | 0.00 | 0.00 | 88 | 1011.1 |
| 20260507085313 | 40 | 206 | 1.0 | 2.0 | 0.00 | 0.00 | 0.00 | 87 | 1010.8 |
| 20260507084811 | 40 | 251 | 0.0 | 2.0 | 0.00 | 0.00 | 0.00 | 87 | 1011.0 |
| 20260507084307 | 40 | 252 | 2.0 | 2.0 | 0.00 | 0.00 | 0.00 | 86 | 1011.2 |
| 20260507083804 | 40 | 169 | 1.0 | 2.0 | 0.00 | 0.00 | 0.00 | 87 | 1011.0 |
| 20260507083301 | 40 | 202 | 0.0 | 2.0 | 0.00 | 0.00 | 0.00 | 86 | 1011.2 |
| 20260507082757 | 41 | 206 | 2.0 | 2.0 | 0.00 | 0.00 | 0.00 | 85 | 1011.1 |
| 20260507082253 | 41 | 235 | 1.0 | 2.0 | 0.00 | 0.00 | 0.00 | 84 | 1011.1 |
| 20260507081750 | 42 | 282 | 0.0 | 1.0 | 0.00 | 0.00 | 0.00 | 84 | 1011.2 |
| 20260507081246 | 42 | 147 | 0.0 | 1.0 | 0.00 | 0.00 | 0.00 | 83 | 1011.3 |
| 20260507080742 | 42 | 269 | 0.0 | 2.0 | 0.00 | 0.00 | 0.00 | 82 | 1011.3 |
| 20260507080239 | 43 | 246 | 1.0 | 1.0 | 0.00 | 0.00 | 0.00 | 81 | 1011.4 |
| 20260507075734 | 43 | 289 | 0.0 | 2.0 | 0.00 | 0.00 | 0.00 | 81 | 1011.4 |
| 20260507075231 | 43 | 246 | 0.0 | 2.0 | 0.00 | 0.00 | 0.00 | 81 | 1011.5 |
| 20260507074727 | 43 | 143 | 2.0 | 2.0 | 0.00 | 0.00 | 0.00 | 82 | 1011.4 |
| 20260507074225 | 43 | 160 | 0.0 | 2.0 | 0.00 | 0.00 | 0.00 | 81 | 1011.6 |
| 20260507073722 | 43 | 142 | 0.0 | 2.0 | 0.00 | 0.00 | 0.00 | 82 | 1011.4 |
| 20260507073218 | 44 | 147 | 1.0 | 2.0 | 0.00 | 0.00 | 0.00 | 83 | 1011.2 |
| 20260507072716 | 44 | 151 | 2.0 | 2.0 | 0.00 | 0.00 | 0.00 | 84 | 1011.3 |
| 20260507072213 | 44 | 124 | 2.0 | 2.0 | 0.00 | 0.00 | 0.00 | 82 | 1011.3 |
| 20260507071711 | 44 | 228 | 0.0 | 2.0 | 0.00 | 0.00 | 0.00 | 82 | 1011.2 |
| 20260507071207 | 44 | 21 | 1.0 | 2.0 | 0.00 | 0.00 | 0.00 | 82 | 1011.4 |
| 20260507070704 | 44 | 98 | 1.0 | 2.0 | 0.00 | 0.00 | 0.00 | 79 | 1011.4 |
| 20260507070201 | 44 | 139 | 0.0 | 0.0 | 0.00 | 0.00 | 0.00 | 79 | 1011.5 |
| 20260507065657 | 44 | 49 | 0.0 | 2.0 | 0.00 | 0.00 | 0.00 | 78 | 1011.3 |
| 20260507065154 | 44 | 131 | 1.0 | 2.0 | 0.00 | 0.00 | 0.00 | 76 | 1011.5 |
| 20260507064652 | 44 | 148 | 0.0 | 2.0 | 0.00 | 0.00 | 0.00 | 79 | 1011.4 |
| 20260507064150 | 44 | 121 | 1.0 | 2.0 | 0.00 | 0.00 | 0.00 | 79 | 1011.4 |
| 20260507063647 | 44 | 121 | 2.0 | 2.0 | 0.00 | 0.00 | 0.00 | 79 | 1011.5 |
| 20260507063144 | 44 | 109 | 1.0 | 2.0 | 0.00 | 0.00 | 0.00 | 78 | 1011.5 |
| 20260507062641 | 44 | 111 | 2.0 | 2.0 | 0.00 | 0.00 | 0.00 | 77 | 1011.5 |
| 20260507062138 | 45 | 122 | 2.0 | 2.0 | 0.00 | 0.00 | 0.00 | 79 | 1011.6 |
| 20260507061636 | 45 | 144 | 2.0 | 2.0 | 0.00 | 0.00 | 0.00 | 79 | 1011.4 |
| 20260507061134 | 45 | 111 | 1.0 | 2.0 | 0.00 | 0.00 | 0.00 | 79 | 1011.6 |
| 20260507060632 | 45 | 114 | 1.0 | 1.0 | 0.00 | 0.00 | 0.00 | 78 | 1011.7 |
| 20260507060128 | 45 | 269 | 0.0 | 2.0 | 0.00 | 0.00 | 0.00 | 78 | 1011.6 |
| 20260507055624 | 45 | 218 | 0.0 | 2.0 | 0.00 | 0.00 | 0.00 | 77 | 1011.6 |
| 20260507055120 | 45 | 188 | 0.0 | 1.0 | 0.00 | 0.00 | 0.00 | 76 | 1011.6 |
| 20260507054615 | 45 | 103 | 1.0 | 2.0 | 0.00 | 0.00 | 0.00 | 74 | 1011.8 |
| 20260507054113 | 45 | 166 | 0.0 | 1.0 | 0.00 | 0.00 | 0.00 | 75 | 1011.6 |
| 20260507053610 | 45 | 243 | 0.0 | 1.0 | 0.00 | 0.00 | 0.00 | 76 | 1011.6 |
| 20260507053109 | 45 | 89 | 0.0 | 2.0 | 0.00 | 0.00 | 0.00 | 76 | 1011.7 |
| 20260507052607 | 46 | 117 | 1.0 | 3.0 | 0.00 | 0.00 | 0.00 | 75 | 1011.7 |
| 20260507052103 | 46 | 156 | 0.0 | 2.0 | 0.00 | 0.00 | 0.00 | 76 | 1011.7 |
| 20260507051600 | 46 | 143 | 2.0 | 2.0 | 0.00 | 0.00 | 0.00 | 74 | 1011.6 |
| 20260507051057 | 46 | 130 | 2.0 | 2.0 | 0.00 | 0.00 | 0.00 | 73 | 1011.6 |
| 20260507050554 | 47 | 128 | 1.0 | 2.0 | 0.00 | 0.00 | 0.00 | 74 | 1011.6 |
| 20260507050050 | 47 | 87 | 2.0 | 3.0 | 0.00 | 0.00 | 0.00 | 71 | 1011.7 |
| 20260507045547 | 47 | 101 | 1.0 | 2.0 | 0.00 | 0.00 | 0.00 | 67 | 1012.0 |
| 20260507045044 | 47 | 131 | 0.0 | 2.0 | 0.00 | 0.00 | 0.00 | 69 | 1011.7 |
| 20260507044541 | 47 | 157 | 1.0 | 2.0 | 0.00 | 0.00 | 0.00 | 69 | 1011.8 |
| 20260507044038 | 47 | 123 | 2.0 | 2.0 | 0.00 | 0.00 | 0.00 | 69 | 1011.7 |
| 20260507043533 | 48 | 117 | 2.0 | 2.0 | 0.00 | 0.00 | 0.00 | 68 | 1011.9 |
| 20260507043031 | 48 | 130 | 1.0 | 2.0 | 0.00 | 0.00 | 0.00 | 70 | 1011.6 |
| 20260507042527 | 48 | 103 | 0.0 | 2.0 | 0.00 | 0.00 | 0.00 | 65 | 1011.7 |
| 20260507042022 | 48 | 115 | 1.0 | 2.0 | 0.00 | 0.00 | 0.00 | 64 | 1011.9 |
| 20260507041520 | 48 | 106 | 2.0 | 2.0 | 0.00 | 0.00 | 0.00 | 66 | 1011.9 |
| 20260507041017 | 48 | 149 | 1.0 | 2.0 | 0.00 | 0.00 | 0.00 | 69 | 1011.9 |
| 20260507040513 | 48 | 136 | 0.0 | 2.0 | 0.00 | 0.00 | 0.00 | 69 | 1012.0 |
| 20260507040009 | 48 | 132 | 0.0 | 2.0 | 0.00 | 0.13 | 0.13 | 71 | 1011.8 |
| 20260507035505 | 48 | 159 | 1.0 | 2.0 | 0.00 | 0.13 | 0.13 | 75 | 1012.0 |
| 20260507035002 | 49 | 140 | 2.0 | 2.0 | 0.00 | 0.13 | 0.13 | 72 | 1011.8 |
| 20260507034459 | 49 | 97 | 2.0 | 2.0 | 0.00 | 0.13 | 0.13 | 65 | 1011.3 |
| 20260507033957 | 49 | 83 | 1.0 | 2.0 | 0.00 | 0.13 | 0.13 | 64 | 1011.3 |
| 20260507033455 | 50 | 41 | 2.0 | 4.0 | 0.00 | 0.13 | 0.13 | 61 | 1011.4 |
| 20260507032952 | 50 | 49 | 2.0 | 4.0 | 0.00 | 0.13 | 0.13 | 63 | 1011.4 |
| 20260507032449 | 50 | 64 | 2.0 | 5.0 | 0.00 | 0.13 | 0.13 | 61 | 1011.5 |
| 20260507031944 | 50 | 41 | 2.0 | 3.0 | 0.00 | 0.13 | 0.13 | 62 | 1011.5 |
| 20260507031441 | 50 | 33 | 1.0 | 4.0 | 0.00 | 0.13 | 0.13 | 64 | 1011.7 |
| 20260507030938 | 50 | 89 | 1.0 | 4.0 | 0.00 | 0.13 | 0.13 | 65 | 1011.5 |
| 20260507030435 | 50 | 17 | 3.0 | 9.0 | 0.00 | 0.13 | 0.13 | 64 | 1011.4 |
| 20260507025932 | 50 | 344 | 2.0 | 6.0 | 0.00 | 0.13 | 0.13 | 67 | 1011.7 |
| 20260507025429 | 50 | 124 | 0.0 | 2.0 | 0.00 | 0.13 | 0.13 | 72 | 1011.6 |
| 20260507024927 | 50 | 26 | 5.0 | 5.0 | 0.00 | 0.13 | 0.13 | 72 | 1011.4 |
| 20260507024424 | 50 | 59 | 3.0 | 3.0 | 0.00 | 0.13 | 0.13 | 74 | 1011.2 |
| 20260507023920 | 50 | 51 | 5.0 | 7.0 | 0.00 | 0.13 | 0.13 | 72 | 1010.8 |
| 20260507023417 | 51 | 23 | 1.0 | 3.0 | 0.00 | 0.13 | 0.13 | 74 | 1011.0 |
| 20260507022914 | 51 | 20 | 0.0 | 4.0 | 0.00 | 0.13 | 0.13 | 73 | 1011.0 |
| 20260507022411 | 51 | 60 | 3.0 | 4.0 | 0.00 | 0.13 | 0.13 | 73 | 1011.0 |
| 20260507021907 | 51 | 48 | 2.0 | 3.0 | 0.00 | 0.13 | 0.13 | 75 | 1010.7 |
| 20260507021402 | 51 | 111 | 1.0 | 2.0 | 0.00 | 0.13 | 0.13 | 75 | 1010.4 |
| 20260507020900 | 51 | 55 | 3.0 | 3.0 | 0.00 | 0.13 | 0.13 | 75 | 1010.4 |
| 20260507020357 | 51 | 86 | 1.0 | 2.0 | 0.00 | 0.13 | 0.13 | 75 | 1010.6 |
| 20260507015854 | 51 | 38 | 1.0 | 2.0 | 0.00 | 0.13 | 0.13 | 76 | 1010.5 |
| 20260507015352 | 51 | 228 | 0.0 | 4.0 | 0.00 | 0.13 | 0.13 | 74 | 1010.4 |
| 20260507014848 | 51 | 275 | 4.0 | 5.0 | 0.00 | 0.13 | 0.13 | 75 | 1010.5 |
| 20260507014345 | 51 | 83 | 0.0 | 2.0 | 0.00 | 0.13 | 0.13 | 78 | 1010.5 |
| 20260507013841 | 51 | 50 | 0.0 | 2.0 | 0.00 | 0.13 | 0.13 | 78 | 1010.6 |
| 20260507013338 | 51 | 46 | 2.0 | 5.0 | 0.00 | 0.13 | 0.13 | 78 | 1010.5 |
| 20260507012836 | 51 | 54 | 3.0 | 4.0 | 0.00 | 0.13 | 0.13 | 82 | 1010.8 |
| 20260507012331 | 50 | 20 | 4.0 | 4.0 | 0.00 | 0.13 | 0.13 | 85 | 1011.1 |
| 20260507011829 | 50 | 99 | 2.0 | 3.0 | 0.00 | 0.13 | 0.13 | 85 | 1011.0 |
| 20260507011326 | 50 | 112 | 2.0 | 2.0 | 0.00 | 0.13 | 0.13 | 86 | 1010.7 |
| 20260507010825 | 50 | 95 | 0.0 | 2.0 | 0.00 | 0.13 | 0.13 | 86 | 1010.8 |
| 20260507010321 | 50 | 81 | 0.0 | 2.0 | 0.00 | 0.13 | 0.13 | 85 | 1010.8 |
| 20260507005819 | 50 | 95 | 2.0 | 2.0 | 0.00 | 0.13 | 0.13 | 85 | 1011.2 |
| 20260507005316 | 50 | 101 | 2.0 | 2.0 | 0.00 | 0.13 | 0.13 | 85 | 1011.1 |
| 20260507004812 | 50 | 95 | 3.0 | 3.0 | 0.00 | 0.13 | 0.13 | 85 | 1011.2 |
| 20260507004310 | 51 | 119 | 3.0 | 5.0 | 0.00 | 0.13 | 0.13 | 83 | 1011.2 |
| 20260507003806 | 51 | 121 | 2.0 | 2.0 | 0.00 | 0.13 | 0.13 | 83 | 1011.1 |
| 20260507003301 | 51 | 97 | 2.0 | 3.0 | 0.00 | 0.13 | 0.13 | 79 | 1010.8 |
| 20260507002757 | 51 | 92 | 0.0 | 1.0 | 0.00 | 0.13 | 0.13 | 78 | 1010.5 |
| 20260507002253 | 52 | 120 | 1.0 | 2.0 | 0.00 | 0.13 | 0.13 | 79 | 1010.7 |
| 20260507001751 | 52 | 114 | 2.0 | 2.0 | 0.00 | 0.13 | 0.13 | 78 | 1011.1 |
| 20260507001248 | 52 | 106 | 2.0 | 3.0 | 0.00 | 0.13 | 0.13 | 78 | 1010.8 |
| 20260507000744 | 52 | 176 | 1.0 | 4.0 | 0.00 | 0.13 | 0.13 | 77 | 1010.7 |
| 20260507000240 | 52 | 124 | 4.0 | 4.0 | 0.00 | 0.13 | 0.13 | 79 | 1010.5 |
| 20260506235737 | 52 | 156 | 2.0 | 2.0 | 0.00 | 0.13 | 0.13 | 81 | 1010.3 |
| 20260506235232 | 52 | 121 | 1.0 | 2.0 | 0.00 | 0.13 | 0.13 | 80 | 1010.2 |
| 20260506234729 | 52 | 66 | 2.0 | 4.0 | 0.00 | 0.13 | 0.13 | 81 | 1010.2 |
| 20260506234227 | 52 | 118 | 2.0 | 2.0 | 0.00 | 0.13 | 0.13 | 83 | 1010.2 |
| 20260506233724 | 52 | 104 | 2.0 | 3.0 | 0.00 | 0.13 | 0.13 | 81 | 1010.0 |
| 20260506233220 | 52 | 100 | 2.0 | 3.0 | 0.00 | 0.13 | 0.13 | 80 | 1009.9 |
| 20260506232717 | 52 | 88 | 2.0 | 3.0 | 0.00 | 0.13 | 0.13 | 78 | 1009.9 |
| 20260506232212 | 52 | 129 | 2.0 | 3.0 | 0.00 | 0.13 | 0.13 | 78 | 1009.8 |
| 20260506231709 | 52 | 46 | 4.0 | 5.0 | 0.00 | 0.13 | 0.13 | 79 | 1009.6 |
| 20260506231208 | 52 | 70 | 1.0 | 1.0 | 0.00 | 0.13 | 0.13 | 79 | 1009.7 |
| 20260506230704 | 52 | 108 | 0.0 | 2.0 | 0.00 | 0.13 | 0.13 | 79 | 1009.7 |
| 20260506230201 | 52 | 23 | 6.0 | 6.0 | 0.00 | 0.13 | 0.13 | 79 | 1009.8 |
| 20260506225657 | 53 | 297 | 2.0 | 4.0 | 0.00 | 0.13 | 0.13 | 79 | 1009.6 |
| 20260506225154 | 53 | 43 | 3.0 | 5.0 | 0.00 | 0.13 | 0.13 | 78 | 1009.4 |
| 20260506224651 | 53 | 232 | 3.0 | 9.0 | 0.00 | 0.13 | 0.13 | 78 | 1009.6 |
| 20260506224148 | 53 | 297 | 5.0 | 5.0 | 0.00 | 0.13 | 0.13 | 78 | 1009.8 |
| 20260506223644 | 53 | 16 | 3.0 | 9.0 | 0.00 | 0.13 | 0.13 | 78 | 1009.8 |
| 20260506223140 | 53 | 191 | 2.0 | 6.0 | 0.00 | 0.13 | 0.13 | 78 | 1009.5 |
| 20260506222637 | 53 | 10 | 2.0 | 5.0 | 0.00 | 0.13 | 0.13 | 79 | 1009.5 |
| 20260506222133 | 53 | 115 | 1.0 | 5.0 | 0.00 | 0.13 | 0.13 | 81 | 1009.5 |
| 20260506221631 | 54 | 180 | 1.0 | 4.0 | 0.00 | 0.13 | 0.13 | 80 | 1009.5 |
| 20260506221129 | 54 | 4 | 4.0 | 6.0 | 0.00 | 0.13 | 0.13 | 79 | 1009.2 |
| 20260506220625 | 54 | 73 | 0.0 | 4.0 | 0.00 | 0.13 | 0.13 | 79 | 1009.5 |
| 20260506220120 | 54 | 66 | 5.0 | 10.0 | 0.00 | 0.13 | 0.13 | 79 | 1009.1 |
| 20260506215618 | 54 | 359 | 2.0 | 4.0 | 0.00 | 0.13 | 0.13 | 79 | 1009.1 |
| 20260506215113 | 54 | 287 | 4.0 | 4.0 | 0.00 | 0.13 | 0.13 | 79 | 1009.2 |
| 20260506214610 | 54 | 50 | 0.0 | 4.0 | 0.00 | 0.13 | 0.13 | 79 | 1009.1 |
| 20260506214108 | 54 | 183 | 2.0 | 6.0 | 0.00 | 0.13 | 0.13 | 80 | 1009.0 |
| 20260506213606 | 54 | 257 | 2.0 | 6.0 | 0.00 | 0.13 | 0.13 | 80 | 1008.8 |
| 20260506213102 | 54 | 41 | 6.0 | 10.0 | 0.00 | 0.13 | 0.13 | 79 | 1008.6 |
| 20260506212559 | 54 | 250 | 5.0 | 5.0 | 0.00 | 0.13 | 0.13 | 80 | 1008.6 |
| 20260506212054 | 54 | 38 | 9.0 | 10.0 | 0.00 | 0.13 | 0.13 | 80 | 1008.4 |
| 20260506211550 | 54 | 220 | 0.0 | 6.0 | 0.00 | 0.13 | 0.13 | 81 | 1008.6 |
| 20260506211048 | 54 | 328 | 2.0 | 2.0 | 0.00 | 0.13 | 0.13 | 82 | 1008.5 |
| 20260506210544 | 54 | 159 | 2.0 | 4.0 | 0.00 | 0.13 | 0.13 | 81 | 1008.5 |
| 20260506210041 | 54 | 87 | 1.0 | 2.0 | 0.00 | 0.13 | 0.13 | 82 | 1008.1 |
| 20260506205537 | 54 | 114 | 1.0 | 4.0 | 0.00 | 0.13 | 0.13 | 83 | 1008.4 |
| 20260506205032 | 54 | 229 | 1.0 | 7.0 | 0.00 | 0.13 | 0.13 | 84 | 1008.1 |
| 20260506204531 | 54 | 208 | 1.0 | 4.0 | 0.00 | 0.13 | 0.13 | 84 | 1008.1 |
| 20260506204028 | 54 | 335 | 2.0 | 4.0 | 0.00 | 0.13 | 0.13 | 84 | 1008.0 |
| 20260506203526 | 53 | 19 | 3.0 | 5.0 | 0.00 | 0.13 | 0.13 | 85 | 1008.0 |
| 20260506203022 | 53 | 235 | 3.0 | 4.0 | 0.00 | 0.13 | 0.13 | 86 | 1008.3 |
| 20260506202520 | 54 | 15 | 3.0 | 10.0 | 0.00 | 0.13 | 0.13 | 85 | 1008.3 |
| 20260506202016 | 54 | 198 | 1.0 | 5.0 | 0.00 | 0.13 | 0.13 | 86 | 1008.0 |
| 20260506201514 | 54 | 275 | 2.0 | 5.0 | 0.00 | 0.13 | 0.13 | 86 | 1008.0 |
| 20260506201010 | 54 | 358 | 4.0 | 6.0 | 0.00 | 0.13 | 0.13 | 86 | 1008.0 |
| 20260506200506 | 55 | 68 | 2.0 | 4.0 | 0.00 | 0.13 | 0.13 | 85 | 1008.0 |
| 20260506200003 | 55 | 173 | 1.0 | 6.0 | 0.00 | 0.13 | 0.13 | 85 | 1008.0 |
| 20260506195500 | 55 | 287 | 2.0 | 9.0 | 0.00 | 0.13 | 0.13 | 84 | 1007.9 |
| 20260506194956 | 55 | 271 | 1.0 | 3.0 | 0.00 | 0.13 | 0.13 | 85 | 1007.9 |
| 20260506194454 | 55 | 115 | 2.0 | 6.0 | 0.00 | 0.13 | 0.13 | 84 | 1007.9 |
| 20260506193950 | 55 | 291 | 0.0 | 3.0 | 0.00 | 0.13 | 0.13 | 85 | 1007.9 |
| 20260506193448 | 55 | 243 | 2.0 | 3.0 | 0.00 | 0.13 | 0.13 | 85 | 1007.7 |
| 20260506192944 | 55 | 235 | 2.0 | 3.0 | 0.00 | 0.13 | 0.13 | 85 | 1007.8 |
| 20260506192441 | 55 | 287 | 3.0 | 3.0 | 0.00 | 0.13 | 0.13 | 86 | 1007.5 |
| 20260506191938 | 55 | 1 | 1.0 | 5.0 | 0.00 | 0.13 | 0.13 | 86 | 1007.6 |
| 20260506191434 | 55 | 224 | 4.0 | 7.0 | 0.00 | 0.13 | 0.13 | 86 | 1007.6 |
| 20260506190931 | 56 | 238 | 6.0 | 10.0 | 0.00 | 0.13 | 0.13 | 85 | 1007.6 |
| 20260506190428 | 56 | 106 | 3.0 | 4.0 | 0.00 | 0.13 | 0.13 | 85 | 1007.5 |
| 20260506185925 | 56 | 204 | 5.0 | 7.0 | 0.00 | 0.13 | 0.13 | 84 | 1007.6 |
| 20260506185422 | 57 | 214 | 2.0 | 5.0 | 0.00 | 0.13 | 0.13 | 83 | 1007.3 |
| 20260506184919 | 57 | 181 | 4.0 | 9.0 | 0.00 | 0.13 | 0.13 | 84 | 1007.3 |
| 20260506184416 | 57 | 176 | 2.0 | 5.0 | 0.00 | 0.13 | 0.13 | 84 | 1007.2 |
| 20260506183913 | 57 | 186 | 4.0 | 10.0 | 0.00 | 0.13 | 0.13 | 84 | 1007.1 |
| 20260506183408 | 57 | 199 | 3.0 | 6.0 | 0.00 | 0.13 | 0.13 | 86 | 1007.0 |
| 20260506182906 | 58 | 287 | 7.0 | 9.0 | 0.00 | 0.13 | 0.13 | 86 | 1006.9 |
| 20260506182403 | 59 | 211 | 0.0 | 5.0 | 0.00 | 0.13 | 0.13 | 83 | 1006.7 |
| 20260506181900 | 59 | 290 | 2.0 | 5.0 | 0.00 | 0.13 | 0.13 | 83 | 1006.6 |
| 20260506181358 | 59 | 132 | 1.0 | 4.0 | 0.00 | 0.13 | 0.13 | 86 | 1006.8 |
| 20260506180855 | 58 | 111 | 5.0 | 5.0 | 0.00 | 0.13 | 0.13 | 86 | 1006.7 |
| 20260506180351 | 58 | 110 | 3.0 | 3.0 | 0.00 | 0.13 | 0.13 | 87 | 1007.0 |
| 20260506175847 | 58 | 110 | 2.0 | 5.0 | 0.00 | 0.13 | 0.13 | 85 | 1006.9 |
| 20260506175344 | 59 | 96 | 2.0 | 2.0 | 0.00 | 0.13 | 0.13 | 86 | 1006.9 |
| 20260506174841 | 59 | 345 | 0.0 | 2.0 | 0.00 | 0.13 | 0.13 | 83 | 1006.8 |
| 20260506174339 | 59 | 117 | 2.0 | 3.0 | 0.00 | 0.13 | 0.13 | 83 | 1006.8 |
| 20260506173836 | 59 | 184 | 3.0 | 7.0 | 0.00 | 0.13 | 0.13 | 82 | 1006.9 |
| 20260506173333 | 59 | 193 | 4.0 | 4.0 | 0.00 | 0.13 | 0.13 | 84 | 1006.7 |
| 20260506172830 | 59 | 131 | 2.0 | 6.0 | 0.00 | 0.13 | 0.13 | 84 | 1006.6 |
| 20260506172326 | 59 | 215 | 2.0 | 3.0 | 0.00 | 0.13 | 0.13 | 85 | 1006.6 |
| 20260506171824 | 59 | 314 | 4.0 | 5.0 | 0.00 | 0.13 | 0.13 | 86 | 1006.6 |
| 20260506171321 | 59 | 272 | 5.0 | 6.0 | 0.00 | 0.13 | 0.13 | 86 | 1006.4 |
| 20260506170819 | 59 | 243 | 4.0 | 9.0 | 0.00 | 0.13 | 0.13 | 87 | 1006.5 |
| 20260506170314 | 59 | 296 | 3.0 | 6.0 | 0.02 | 0.13 | 0.13 | 90 | 1006.6 |
| 20260506165814 | 59 | 208 | 3.0 | 5.0 | 0.02 | 0.13 | 0.13 | 94 | 1006.4 |
| 20260506165310 | 59 | 251 | 4.0 | 9.0 | 0.02 | 0.13 | 0.13 | 95 | 1006.3 |
| 20260506164807 | 59 | 95 | 1.0 | 5.0 | 0.00 | 0.13 | 0.13 | 95 | 1006.1 |
| 20260506164304 | 58 | 95 | 1.0 | 3.0 | 0.02 | 0.13 | 0.13 | 95 | 1006.3 |
| 20260506163801 | 58 | 127 | 2.0 | 4.0 | 0.00 | 0.12 | 0.12 | 94 | 1006.1 |
| 20260506163256 | 58 | 113 | 3.0 | 5.0 | 0.00 | 0.12 | 0.12 | 94 | 1005.9 |
| 20260506162752 | 58 | 120 | 4.0 | 4.0 | 0.00 | 0.12 | 0.12 | 94 | 1006.1 |
| 20260506162250 | 58 | 117 | 2.0 | 5.0 | 0.00 | 0.12 | 0.12 | 94 | 1006.2 |
| 20260506161747 | 58 | 121 | 2.0 | 5.0 | 0.00 | 0.12 | 0.12 | 94 | 1006.0 |
| 20260506161244 | 58 | 108 | 5.0 | 6.0 | 0.00 | 0.12 | 0.12 | 94 | 1006.2 |
| 20260506160742 | 58 | 124 | 5.0 | 6.0 | 0.00 | 0.12 | 0.12 | 94 | 1006.1 |
| 20260506160238 | 58 | 107 | 4.0 | 4.0 | 0.00 | 0.12 | 0.12 | 93 | 1006.2 |
| 20260506155737 | 58 | 118 | 4.0 | 8.0 | 0.00 | 0.12 | 0.12 | 93 | 1006.0 |